Weather in Andong

South Korea     36°33′49″N   128°43′05″E
temp.,
°C
wind,
m/s
gust,
m/s
humid.,
%
clouds,
%
prec.,
mm/h
press.,
hPa
HPBL,
m
25 july, sun
sun2500:00+21e1194100 0.0 100912
03:00+20ene1196100 0.0 100912
06:00+21ne1192100 0.0 101021
09:00+27e1272100 0.0 1009469
12:00+32ese2451100 0.0 10071864
15:00+32se3348100 0.0 10061800
18:00+27ese3773100 0.0 1006354
21:00+23ene2292100 0.0 100828
26 july, mon
mon2600:00+21ene1198100 0.0 100719
03:00+21ene1197100 0.0 100611
06:00+21ene11970 0.0 100612
09:00+28e116529 0.0 1006575
12:00+33e23430 0.0 10051898
15:00+33e534114 0.0 10032112
18:00+29ese46600 0.0 1003573
21:00+22ene22880 0.0 100525
27 july, tue
tue2700:00+21ene11960 0.0 100513
03:00+21ene11970 0.0 100411
06:00+21ene11971 0.0 100413
09:00+28e12680 0.0 1004622
12:00+33se12470 0.0 10031596
15:00+35ese123958 0.0 10002499
18:00+29e476645 0.0 1001534
21:00+23e228536 0.0 100359
28 july, wed
wed2800:00+21e11960 0.0 100313
03:00+21ene11970 0.0 100211
06:00+21e11960 0.0 100313
09:00+28ene11650 0.0 1003538
12:00+33ese12450 0.0 10011638
15:00+35ene113598 0.0 9992180
18:00+31se2453100 0.0 999224
21:00+24e2285100 0.0 100133
29 july, thu
thu2900:00+22e1194100 0.0 100119
03:00+21ene1195100 0.0 100111
06:00+21e1194100 0.0 100113
09:00+28sse116692 0.0 1001569
12:00+34se124329 0.0 9991493
15:00+35s3333100 0.0 9972292
18:00+30sse2459100 0.0 998172
21:00+24e228328 0.0 99926